Theta_e
307 307 307 306 304 303 302 302 301 300 301 301 302 302 303 303 304 304 302 310 300 293 294 296 298 292 292 291 286 292 292 296 295 291 289 288 285 289 286 289 287 285 285 286 286 283 280 293 290 287 296 299 298 300
307 307 305 303 302 301 300 300 300 300 300 301 301 301 302 302 303 304 300 306 306 296 295 302 301 302 299 298 293 292 293 293 296 292 291 294 289 290 288 284 294 286 287 286 286 286 294 296 291 292 293 291 297 300
307 305 303 301 301 300 300 299 299 299 300 300 300 300 301 301 301 302 301 304 300 295 294 297 299 304 306 302 306 292 296 299 296 297 291 292 288 293 287 288 290 294 291 286 286 293 293 296 298 298 301 302 302 302
304 302 301 300 300 299 299 299 299 299 299 300 300 302 302 302 302 302 301 305 301 296 289 297 305 302 307 306 304 304 303 303 301 297 292 290 289 296 291 293 291 295 294 289 290 295 297 296 298 298 301 303 303 305
302 300 300 299 299 299 299 299 299 299 300 301 302 303 302 302 302 303 302 302 302 295 289 292 300 305 305 305 303 303 301 298 294 292 290 289 295 295 295 296 294 298 293 290 290 297 295 295 299 298 298 301 302 301
300 299 299 298 298 298 298 298 299 299 300 302 303 302 301 301 302 301 295 303 304 301 292 288 302 301 304 306 304 300 300 297 294 293 292 295 301 294 291 292 298 300 300 302 297 301 300 299 299 299 298 301 302 301
298 298 298 298 298 298 298 298 299 300 301 301 301 301 301 302 303 297 297 301 304 302 293 289 292 303 301 303 302 300 301 299 296 295 294 296 298 296 293 291 299 300 301 302 302 301 297 298 296 300 300 301 302 302
297 297 297 297 297 297 298 298 299 300 301 302 302 300 302 305 302 298 303 304 303 297 296 288 290 298 305 301 299 303 297 296 296 296 302 299 298 297 292 298 299 300 302 301 301 302 300 299 299 299 299 301 300 299
297 297 297 297 297 297 297 298 299 301 301 301 299 301 305 303 298 301 305 306 303 297 290 290 288 291 303 300 305 302 302 293 299 294 296 297 297 293 298 298 299 300 300 300 301 301 300 298 297 299 297 298 299 298
296 296 296 297 297 297 297 298 300 299 300 299 299 301 296 300 300 303 300 296 293 294 294 289 297 291 299 300 299 301 301 296 293 297 302 296 296 302 302 302 303 302 302 301 298 296 297 297 297 298 297 296 299 299
296 296 296 296 296 297 297 298 299 299 299 297 293 293 299 302 302 300 295 293 291 289 292 294 295 292 300 294 296 300 298 298 291 296 296 294 296 301 303 302 304 304 304 304 303 302 300 299 298 298 297 297 297 298
296 296 295 296 297 297 298 298 298 297 296 295 295 296 296 295 294 291 290 293 292 290 296 295 294 294 295 302 297 299 293 297 289 300 295 292 300 302 303 302 304 305 304 303 303 301 300 299 299 299 299 299 296 297
296 295 296 296 297 298 298 298 298 298 299 298 293 289 290 292 285 284 283 288 290 297 296 295 293 296 295 297 296 296 291 292 299 293 292 297 302 303 304 303 304 305 305 304 303 302 301 300 299 299 298 299 298 295
295 296 296 297 297 297 297 297 298 298 295 290 288 284 287 286 286 289 289 291 295 295 295 296 296 292 294 292 293 291 295 296 289 288 290 298 303 303 304 304 304 303 304 303 303 302 302 300 299 299 299 298 299 296
296 296 297 297 296 296 297 298 298 298 295 287 288 282 287 292 293 293 295 294 296 297 295 293 294 296 287 286 290 291 289 288 291 292 298 300 304 305 304 304 304 305 305 304 304 303 302 301 299 298 298 299 298 297
296 296 298 295 296 297 297 298 297 295 293 289 287 285 289 289 290 291 293 292 295 295 295 295 292 292 290 292 289 289 288 289 294 299 301 303 306 306 306 306 305 305 306 305 305 304 304 302 299 299 299 299 298 297
295 295 294 295 297 297 296 295 292 287 287 286 289 291 290 288 289 291 292 292 296 292 290 293 289 288 294 288 289 294 293 296 298 301 304 305 305 307 306 307 307 307 307 307 306 306 305 304 301 300 298 298 298 298
295 297 296 297 297 296 297 296 291 288 284 289 287 288 290 291 290 291 292 294 293 291 291 289 294 290 288 286 291 297 299 301 303 305 306 307 307 309 307 306 307 307 307 308 307 307 306 305 301 299 300 300 299 299
296 297 296 296 296 294 290 291 294 286 287 289 290 291 291 291 293 293 293 294 294 294 292 292 289 288 290 295 295 297 296 298 300 301 303 307 308 308 308 308 307 308 308 308 308 307 307 307 303 301 301 301 299 300
296 295 295 295 295 293 286 290 295 288 286 289 291 289 290 290 291 292 293 293 294 292 288 287 288 293 293 294 297 298 299 301 301 300 301 305 309 308 308 309 309 309 309 309 309 303 307 306 304 302 302 300 300 299
294 295 295 295 295 294 290 290 289 290 289 288 290 289 289 291 290 291 292 293 292 291 288 292 291 295 298 298 299 298 298 299 299 302 301 300 304 306 306 309 310 309 307 307 306 305 303 306 305 304 301 301 301 301
296 294 295 295 291 290 290 293 289 290 288 288 288 289 287 286 287 289 293 291 289 287 288 288 289 291 294 296 298 297 297 298 299 301 299 300 301 303 304 309 309 307 306 306 307 306 306 307 306 304 303 301 300 300
294 294 293 291 285 286 285 294 286 288 283 285 288 284 285 285 288 292 286 286 287 289 289 288 289 291 292 295 296 297 298 297 297 297 298 301 304 307 307 307 309 308 307 307 308 308 308 301 302 304 303 301 301 299
293 288 284 285 286 282 288 286 290 287 287 284 283 281 283 285 290 287 283 285 287 289 288 288 288 288 290 291 290 291 292 293 294 295 298 299 301 304 307 308 309 310 310 310 309 308 309 307 300 304 302 302 300 299
283 281 284 278 285 282 280 282 283 284 280 282 281 282 284 289 285 282 282 284 286 287 287 287 287 288 287 287 288 289 290 290 289 290 295 298 299 302 306 308 309 310 311 310 309 308 307 306 305 304 303 302 301 300
277 281 281 283 284 282 284 279 280 280 282 280 282 287 288 285 282 279 282 285 285 285 285 285 285 285 286 288 287 286 286 288 288 289 295 299 298 297 300 304 306 309 310 309 309 307 306 305 304 303 302 300 292 299
277 280 285 290 289 288 285 286 286 284 280 280 284 283 283 279 278 282 285 287 285 286 288 290 288 286 286 286 288 288 288 288 288 289 295 295 296 295 295 295 297 303 306 309 308 308 307 305 304 303 303 302 301 301
285 285 282 285 285 288 281 281 281 280 283 288 287 280 278 278 279 283 285 287 287 288 288 289 290 289 288 289 289 289 288 290 289 290 293 292 293 293 292 295 298 291 302 308 310 308 308 306 305 304 304 302 301 302
284 288 287 282 283 283 283 283 285 288 290 288 284 283 281 283 284 284 285 287 289 288 287 286 287 289 289 290 290 291 289 287 285 283 281 283 284 287 289 290 294 296 300 306 291 297 306 306 304 303 305 304 303 303
285 289 285 284 282 283 288 290 290 291 293 291 291 286 284 283 285 287 287 287 286 285 286 287 286 285 284 285 285 287 289 288 286 283 281 280 281 285 287 288 289 292 295 303 306 302 288 297 295 301 300 299 301 300
289 288 285 286 285 290 292 294 294 292 288 288 289 286 283 283 285 286 285 286 286 286 285 285 285 284 283 283 282 282 283 287 287 286 284 286 287 286 287 288 288 290 293 298 301 301 299 299 300 300 297 295 293 295
288 286 285 282 286 292 293 290 289 288 287 287 286 286 285 284 280 282 283 283 283 281 282 282 282 282 285 285 285 285 283 286 286 285 284 284 286 287 288 289 289 289 288 289 290 291 294 294 296 293 292 295 295 294
287 287 286 285 285 285 289 287 285 282 284 283 283 284 284 282 277 282 285 285 283 281 282 283 284 286 286 285 285 285 284 286 284 283 282 282 283 283 287 289 289 288 287 286 285 285 284 285 284 285 285 285 285 285
Wind_Speed
13 13 14 10 12 13 14 15 16 16 16 16 16 16 15 14 13 5 8 4 4 5 11 15 20 13 6 5 3 7 10 3 6 5 3 3 3 4 4 7 7 4 4 2 6 6 5 5 6 6 13 20 19 15
12 11 8 11 12 13 14 15 16 16 16 16 16 15 15 14 15 10 4 1 3 6 8 19 22 22 22 20 7 3 7 9 4 3 3 4 3 4 8 4 2 3 3 3 3 4 10 14 9 16 22 24 24 14
12 8 9 11 12 13 14 15 16 16 17 16 16 16 15 14 13 9 5 4 2 4 10 10 5 4 9 13 13 5 6 6 2 1 2 4 5 2 3 4 5 4 4 3 4 1 13 14 10 13 18 3 10 13
5 8 9 11 12 13 14 16 17 18 18 18 17 16 16 14 12 12 7 5 2 3 5 3 3 11 9 11 14 20 10 2 5 1 3 4 4 4 4 7 8 4 3 4 6 11 11 4 13 15 15 11 12 9
6 8 9 11 12 14 15 17 18 19 18 18 17 16 17 16 13 10 8 8 7 4 4 8 20 6 3 7 13 16 16 11 3 2 3 4 5 2 4 6 8 3 3 3 4 14 7 9 12 15 16 13 12 12
6 8 9 11 13 14 16 17 19 19 19 20 19 21 22 18 13 4 3 2 3 5 3 5 6 6 4 5 8 12 10 7 4 3 3 4 8 1 4 5 5 7 3 8 7 13 8 9 11 12 13 14 12 11
6 8 9 11 13 15 16 18 20 21 22 22 24 25 22 14 7 5 2 3 4 5 3 5 5 5 4 3 5 5 8 5 5 3 5 5 2 4 4 5 8 7 5 9 8 10 9 13 13 13 12 13 8 9
6 9 9 12 14 15 17 19 21 22 23 24 26 21 15 4 2 5 7 8 3 2 3 4 6 5 6 4 4 5 4 4 5 4 4 4 1 4 5 3 5 7 6 7 9 10 7 10 13 13 11 10 11 11
7 8 10 12 13 16 17 20 21 23 24 26 21 14 4 4 3 1 5 2 6 2 3 3 3 4 3 5 2 4 4 4 3 4 3 1 5 6 2 2 3 6 7 8 8 12 12 12 13 13 12 13 12 12
7 8 10 12 14 15 17 19 20 22 26 21 8 4 3 2 10 8 4 3 3 4 4 5 6 7 6 3 3 2 4 4 4 5 3 4 5 5 4 1 4 4 6 8 10 11 12 14 13 14 14 10 11 11
7 8 10 12 14 16 16 18 18 23 9 5 5 3 7 8 5 5 4 5 4 4 5 5 8 6 4 5 4 2 3 2 4 3 4 2 3 1 6 5 6 5 6 7 7 7 9 11 12 12 11 11 10 11
7 9 11 13 14 16 16 15 17 11 7 9 11 9 4 4 5 5 4 4 5 4 5 4 2 3 4 3 4 2 3 2 3 1 4 3 1 7 7 6 5 5 5 7 7 7 8 12 12 12 11 10 9 8
8 10 11 13 14 13 12 14 15 16 15 2 3 4 4 3 4 6 5 5 4 1 6 1 2 2 3 6 3 3 4 3 3 3 3 2 5 7 7 6 5 5 4 7 8 6 8 11 13 13 12 10 9 9
9 11 12 13 11 10 14 15 16 12 5 4 4 4 4 3 4 4 7 6 4 2 4 6 3 3 2 4 2 4 1 1 3 3 2 2 1 7 8 7 7 5 4 5 7 6 9 10 11 12 12 12 10 10
9 13 14 12 5 14 17 17 16 7 3 4 3 4 3 7 8 8 8 7 6 7 7 6 7 4 3 2 3 3 4 4 4 2 4 5 5 6 9 8 7 7 5 4 5 6 8 9 10 11 11 11 12 11
8 13 1 5 13 17 19 12 2 0 3 3 4 5 5 9 8 5 4 4 8 8 7 5 5 3 4 1 3 5 2 3 2 4 4 3 2 6 8 8 6 6 7 5 4 6 6 8 10 10 10 11 11 13
7 3 3 12 15 17 6 1 0 0 2 4 3 5 6 4 9 8 9 8 7 8 5 4 4 3 1 2 2 2 2 3 3 6 4 4 4 4 6 7 8 7 7 7 6 6 7 7 6 8 10 10 10 12
4 2 8 13 11 5 1 1 2 2 3 4 6 8 9 8 9 9 8 8 7 6 5 5 6 4 3 3 2 4 7 8 7 6 5 6 5 1 4 6 7 8 8 8 7 7 7 6 6 6 8 8 8 9
6 8 11 7 6 3 2 1 2 4 3 6 5 7 8 9 8 8 8 8 7 5 5 4 6 6 4 6 9 7 2 7 8 8 8 7 6 2 5 6 8 8 9 10 9 5 6 4 6 5 5 5 6 6
8 4 4 4 4 2 2 1 1 4 4 5 7 6 10 8 7 7 6 5 3 4 5 5 7 5 5 6 5 9 8 10 10 9 9 8 5 5 3 5 6 7 7 8 8 7 6 5 5 5 4 5 6 6
5 2 3 4 1 1 3 2 3 2 5 5 7 9 8 6 8 7 4 5 3 2 5 8 10 11 11 8 7 5 8 9 8 9 10 10 8 8 6 5 6 7 8 7 7 8 8 7 6 5 6 5 6 7
2 2 1 1 0 1 3 1 4 6 3 6 7 7 7 6 6 7 10 4 6 5 5 6 8 9 12 13 11 10 9 9 10 10 9 8 6 10 10 4 6 7 9 9 9 9 9 8 8 8 7 7 7 7
2 2 2 0 1 1 2 2 4 2 4 7 7 6 5 5 8 9 4 4 3 4 6 7 10 10 11 12 12 10 10 10 8 8 8 9 9 9 9 7 6 7 9 10 10 9 9 10 10 9 9 8 9 9
2 2 2 2 1 0 2 1 1 3 4 5 4 6 5 4 5 3 3 4 5 8 9 12 10 8 7 10 7 9 9 10 10 9 8 9 9 8 7 7 6 7 6 7 9 10 10 11 12 11 11 11 10 10
3 2 3 2 3 2 2 1 2 2 4 6 4 3 3 3 3 3 5 7 10 11 11 11 9 8 7 7 7 9 13 10 9 10 9 9 9 9 9 7 7 5 6 7 11 13 13 13 13 13 13 13 13 13
3 5 5 4 3 3 1 1 0 3 4 3 2 4 3 3 3 4 5 8 8 9 10 10 10 9 8 8 9 10 11 9 9 8 8 7 6 7 8 10 6 4 4 6 8 13 16 16 16 18 16 15 10 14
4 5 4 2 1 1 1 1 2 2 3 3 2 3 3 3 3 3 5 6 7 8 8 8 8 8 8 9 9 10 9 9 8 9 5 6 7 8 8 9 10 9 12 7 9 12 15 17 17 16 15 15 16 15
3 4 6 5 4 2 2 1 2 3 2 1 3 2 3 2 2 4 4 8 8 8 8 8 8 8 8 8 8 9 12 13 13 11 5 7 8 8 12 10 10 17 10 10 10 10 12 15 15 17 18 17 16 14
4 3 4 5 4 4 5 4 3 2 1 3 3 2 3 3 3 4 5 6 6 7 8 9 10 9 9 9 9 9 10 12 18 23 20 12 11 9 13 11 11 11 11 10 1 5 8 11 12 13 18 15 14 14
6 6 4 5 4 6 4 5 3 1 2 2 2 5 4 3 3 4 5 6 7 7 7 7 8 10 11 12 12 14 10 11 12 11 12 11 11 12 11 12 11 11 12 11 4 5 7 8 8 6 9 7 10 10
6 5 3 4 3 3 0 1 1 2 1 3 2 3 6 5 3 7 8 8 7 8 9 9 9 10 11 11 11 12 12 12 16 17 15 11 11 11 11 11 10 10 12 10 3 3 7 9 10 13 15 14 14 14
6 6 5 5 3 3 2 2 2 1 2 2 3 3 4 3 4 3 6 7 8 8 9 9 9 9 10 9 9 8 8 10 12 14 19 14 13 14 12 10 10 9 11 11 12 12 10 9 7 7 4 10 15 14
4 4 3 2 3 4 3 1 1 3 2 2 2 3 3 3 4 3 4 6 7 7 8 8 6 8 8 11 12 10 9 10 12 11 15 16 15 15 12 12 11 13 15 14 13 12 15 16 13 14 14 14 13 14
Wind_Direction
295 303 311 330 331 331 332 332 333 330 331 332 328 326 324 322 322 324 290 236 233 257 278 261 268 262 246 224 247 323 303 190 283 338 351 14 287 325 289 284 312 292 303 250 236 243 258 51 319 234 322 307 307 302
294 306 332 327 325 330 332 330 328 331 327 327 325 323 320 318 315 319 263 329 253 250 273 293 280 269 256 249 259 219 292 316 289 304 324 324 291 292 314 297 38 287 234 304 265 311 293 294 240 266 265 259 269 274
304 322 324 321 324 330 327 327 328 328 326 323 318 317 314 312 306 306 292 280 227 264 274 246 250 223 219 234 228 216 223 232 222 71 291 288 268 283 285 284 285 273 109 243 311 277 276 307 304 308 333 336 243 263
303 311 317 319 324 325 325 324 324 322 320 320 317 312 308 303 298 289 270 261 276 293 279 292 260 271 278 226 216 214 251 100 314 212 244 258 264 166 270 291 283 306 239 284 251 275 306 5 352 336 340 19 23 11
299 306 316 318 323 323 324 327 321 320 321 310 306 303 313 307 295 284 265 250 239 236 289 299 302 262 211 208 218 219 224 243 277 272 232 240 256 282 251 259 262 340 297 282 320 326 359 334 347 342 342 7 13 7
295 304 312 318 322 325 325 324 323 319 314 317 320 311 306 301 287 279 276 87 177 172 256 284 345 259 224 220 213 212 212 215 217 234 241 242 249 167 285 274 319 348 283 318 321 352 8 350 334 352 344 357 2 358
291 300 312 320 322 324 326 323 321 317 316 316 312 310 303 286 229 219 323 39 138 154 242 276 276 163 209 195 187 201 186 199 207 232 219 242 262 173 260 268 3 356 343 352 359 349 359 353 4 344 11 356 1 6
283 295 314 320 322 326 325 326 322 319 320 316 314 313 308 232 228 244 252 201 154 244 238 264 271 255 174 215 209 165 186 191 197 251 236 261 326 213 260 354 355 1 354 14 6 12 18 2 3 7 19 9 22 20
278 300 317 319 322 326 329 328 322 322 321 319 313 310 209 214 198 191 15 298 174 232 263 241 264 306 159 250 235 186 205 222 172 229 261 183 232 225 300 27 35 10 16 3 15 22 11 12 5 19 14 17 27 10
280 304 314 317 323 327 329 325 328 333 322 312 285 224 196 78 329 279 162 196 165 201 224 249 245 252 306 290 254 262 174 239 240 197 177 231 271 295 227 112 76 33 33 24 14 25 10 6 9 14 24 27 24 17
282 302 310 316 323 323 330 326 338 333 297 336 336 312 348 316 248 208 225 212 166 223 210 227 221 231 246 243 286 294 302 256 265 103 271 325 255 126 155 166 116 102 81 61 45 28 25 5 3 18 23 31 29 28
285 302 312 317 320 323 323 319 336 325 333 311 295 309 289 276 244 246 223 214 237 256 180 252 112 211 276 257 253 198 249 241 270 38 260 252 117 138 162 133 124 114 88 69 69 49 27 21 18 21 29 39 42 24
286 300 310 316 323 331 342 335 327 320 305 260 227 235 240 220 247 230 213 207 217 353 29 12 230 255 220 230 248 248 234 252 328 252 264 303 76 149 150 148 146 119 90 84 91 70 43 35 32 27 30 45 55 42
288 301 309 312 313 331 331 327 325 323 275 284 290 275 247 210 258 284 333 338 341 315 288 282 246 187 310 221 215 241 90 241 250 234 240 41 17 160 159 158 160 148 108 78 87 74 57 49 46 37 32 36 52 50
293 301 307 294 317 325 322 319 314 279 272 273 273 262 265 348 320 328 347 332 326 307 316 309 280 163 193 231 203 207 204 233 217 278 43 19 326 175 168 170 157 143 149 117 82 74 62 59 58 54 43 43 48 61
306 299 148 341 327 323 320 310 355 346 246 264 256 284 329 310 333 319 343 337 320 325 295 259 273 227 240 269 186 218 220 228 34 350 355 355 318 199 186 182 162 162 148 140 115 100 84 64 71 71 61 51 53 53
289 238 25 329 324 316 343 349 95 119 313 275 268 301 287 290 284 308 326 331 344 301 304 302 253 278 31 282 263 271 259 340 328 352 27 8 345 197 189 186 166 171 166 155 141 129 104 98 90 86 77 74 66 63
250 338 324 319 321 313 358 291 267 259 264 259 293 321 324 305 293 296 310 316 320 321 310 304 317 276 265 262 274 36 6 339 334 336 350 6 27 274 196 192 182 181 177 165 160 139 138 118 109 97 100 97 94 82
323 323 329 337 335 314 320 344 296 298 283 320 302 318 319 309 294 289 287 286 279 281 283 266 260 267 288 15 360 360 330 300 336 333 325 331 21 341 225 192 197 191 178 173 164 166 141 130 92 116 111 107 92 83
294 295 322 339 281 250 258 198 230 281 287 325 295 310 319 311 315 293 289 296 302 225 209 237 268 2 355 345 326 318 332 323 314 319 332 335 8 23 277 224 200 176 187 175 168 152 153 150 138 133 114 102 110 100
233 65 281 284 119 267 294 313 260 278 306 292 314 313 315 324 328 324 41 313 250 356 350 14 339 324 334 331 326 332 322 332 324 321 316 315 333 328 314 237 207 188 185 192 181 165 177 165 149 138 149 124 112 103
89 258 302 126 279 170 267 222 300 321 278 297 301 317 318 334 348 359 321 359 41 22 352 332 335 327 317 320 334 343 342 346 331 318 311 310 298 308 299 262 212 194 198 200 192 180 190 159 158 156 151 128 130 125
196 213 197 134 195 162 269 273 274 328 301 326 324 323 4 358 3 343 70 5 21 344 329 330 326 328 332 333 330 325 339 336 321 320 312 308 305 290 279 276 262 225 216 182 211 179 183 153 158 162 142 157 142 130
160 164 194 164 204 254 285 271 240 279 273 319 330 339 359 340 338 19 58 21 355 353 358 350 343 341 344 351 347 337 338 337 323 314 312 310 304 302 315 291 267 255 245 206 189 175 167 177 160 164 163 160 157 160
186 168 174 215 206 213 196 327 305 317 324 329 300 321 13 331 340 69 19 7 354 359 356 345 345 347 346 340 337 337 341 338 325 313 305 303 299 293 288 266 260 252 227 192 192 179 166 172 178 174 173 172 168 166
189 171 185 176 156 198 94 273 99 285 323 317 298 317 327 308 39 43 14 349 349 349 340 340 346 341 347 348 337 338 334 332 323 306 310 343 345 328 307 292 291 239 215 229 214 185 177 174 180 177 177 173 162 168
172 190 178 210 275 149 190 198 297 259 252 270 331 331 322 347 72 48 356 15 337 336 329 342 352 345 341 339 339 340 338 338 328 303 297 12 29 14 358 351 340 338 329 239 219 209 194 181 181 176 179 175 175 176
223 202 171 175 179 150 158 214 223 243 270 283 283 268 25 44 13 356 344 340 335 326 339 358 5 355 352 351 347 347 351 351 353 2 3 19 4 22 5 350 339 314 305 277 241 212 197 190 186 179 178 182 178 177
195 183 160 176 154 177 202 210 231 190 272 269 266 86 114 72 17 344 332 322 334 354 356 2 5 359 4 4 10 13 11 4 4 8 6 357 350 347 346 340 339 340 323 304 240 306 205 187 182 182 183 182 178 172
178 177 176 177 183 204 193 188 263 53 92 291 127 122 114 122 61 21 4 358 2 4 358 9 19 10 7 4 1 4 20 15 11 5 347 343 332 323 329 335 331 336 323 302 208 149 108 115 113 114 139 144 164 165
142 176 173 199 221 200 97 1 316 50 217 188 140 176 133 142 134 57 21 359 3 9 7 3 13 20 8 5 2 354 355 358 359 1 359 344 345 342 341 339 331 342 336 343 357 174 152 151 163 164 162 156 161 167
179 186 171 188 206 216 248 266 41 130 139 161 117 136 139 143 104 78 22 5 17 13 3 358 1 2 4 3 4 6 340 346 356 360 3 356 355 354 353 355 355 9 359 14 25 28 38 61 95 88 96 167 170 169
171 166 180 219 220 216 158 290 129 141 132 125 99 70 62 62 84 80 59 31 20 4 353 351 341 1 0 12 6 356 358 358 2 7 4 2 0 8 6 6 17 23 28 37 38 34 45 57 64 74 81 88 85 89